SR9WXM Weather Reports


Display with metric or nautical units.
time (UTC)temp
F
wind
direction
speed
MPH
gust
MPH
rain 1hr
in
rain 24hr
in
rain mn
in
humidity
%
barometer
mb
20260505001627 55 181 12.0 18.0 0.00 0.00 0.00 100
20260505001226 55 190 12.0 17.0 0.00 0.00 0.00 100
20260505000826 54 186 12.0 17.0 0.00 0.00 0.00 100
20260505000428 54 186 12.0 20.0 0.00 0.00 0.00 100
20260505000024 54 197 9.0 13.0 0.00 0.00 0.00 100
20260504235624 55 194 10.0 15.0 0.00 0.00 0.00 100
20260504235224 55 180 12.0 16.0 0.00 0.00 0.00 100
20260504234824 55 193 10.0 18.0 0.00 0.00 0.00 100
20260504234424 55 209 10.0 15.0 0.00 0.00 0.00 100
20260504234022 55 200 11.0 15.0 0.00 0.00 0.00 100
20260504233622 55 167 10.0 16.0 0.00 0.00 0.00 100
20260504233222 55 203 10.0 14.0 0.00 0.00 0.00 100
20260504232821 55 207 12.0 21.0 0.00 0.00 0.00 100
20260504232421 55 198 10.0 17.0 0.00 0.00 0.00 100
20260504232019 55 198 10.0 17.0 0.00 0.00 0.00 100
20260504231620 55 197 10.0 14.0 0.00 0.00 0.00 100
20260504231220 55 213 8.0 13.0 0.00 0.00 0.00 100
20260504230819 55 200 10.0 16.0 0.00 0.00 0.00 100
20260504230419 55 204 9.0 16.0 0.00 0.00 0.00 100
20260504230017 55 196 8.0 13.0 0.00 0.00 0.00 100
20260504225617 55 204 8.0 13.0 0.00 0.00 0.00 100
20260504225217 55 187 9.0 12.0 0.00 0.00 0.00 100
20260504224817 55 200 8.0 14.0 0.00 0.00 0.00 100
20260504224417 55 183 8.0 12.0 0.00 0.00 0.00 100
20260504224006 55 200 10.0 13.0 0.00 0.00 0.00 100
20260504223603 55 203 9.0 14.0 0.00 0.00 0.00 100
20260504223203 55 180 8.0 12.0 0.00 0.00 0.00 100
20260504222803 55 203 10.0 13.0 0.00 0.00 0.00 100
20260504222403 55 200 10.0 16.0 0.00 0.00 0.00 100
20260504222002 55 204 10.0 13.0 0.00 0.00 0.00 100
20260504221601 55 202 9.0 12.0 0.00 0.00 0.00 100
20260504221201 55 200 9.0 13.0 0.00 0.00 0.00 100
20260504220801 55 192 8.0 11.0 0.00 0.00 0.00 100
20260504220401 55 192 8.0 12.0 0.00 0.00 0.00 100
20260504215959 55 194 9.0 13.0 0.00 0.00 0.00 100
20260504215558 55 204 8.0 14.0 0.00 0.00 0.00 100
20260504215159 55 214 9.0 14.0 0.00 0.00 0.00 100
20260504214759 55 203 7.0 11.0 0.00 0.00 0.00 100
20260504214359 55 198 8.0 12.0 0.00 0.00 0.00 100
20260504213957 56 205 8.0 13.0 0.00 0.00 0.00 100
20260504213557 56 209 7.0 12.0 0.00 0.00 0.00 100
20260504213156 56 198 8.0 13.0 0.00 0.00 0.00 100
20260504212756 56 194 9.0 14.0 0.00 0.00 0.00 100
20260504212356 56 213 8.0 16.0 0.00 0.00 0.00 100
20260504211954 57 211 7.0 12.0 0.00 0.00 0.00 100
20260504211554 57 207 7.0 11.0 0.00 0.00 0.00 100
20260504211155 57 206 8.0 13.0 0.00 0.00 0.00 100
20260504210755 57 203 10.0 16.0 0.00 0.00 0.00 100
20260504210354 57 195 8.0 12.0 0.00 0.00 0.00 100
20260504205952 57 216 8.0 11.0 0.00 0.00 0.00 100
20260504205553 57 204 7.0 10.0 0.00 0.00 0.00 100
20260504205152 57 213 9.0 14.0 0.00 0.00 0.00 100
20260504204752 57 204 8.0 13.0 0.00 0.00 0.00 100
20260504204352 57 175 9.0 14.0 0.00 0.00 0.00 100
20260504203950 57 195 11.0 16.0 0.00 0.00 0.00 100
20260504203550 57 185 8.0 11.0 0.00 0.00 0.00 100
20260504203150 57 211 10.0 14.0 0.00 0.00 0.00 100
20260504202750 57 184 8.0 12.0 0.00 0.00 0.00 100
20260504202350 57 193 8.0 11.0 0.00 0.00 0.00 100
20260504201948 57 207 7.0 10.0 0.00 0.00 0.00 100
20260504201548 57 209 8.0 13.0 0.00 0.00 0.00 100
20260504201148 57 199 10.0 14.0 0.00 0.00 0.00 100
20260504200748 57 194 8.0 12.0 0.00 0.00 0.00 100
20260504200341 57 201 7.0 10.0 0.00 0.00 0.00 100
20260504195939 57 215 9.0 13.0 0.00 0.00 0.00 100
20260504195538 57 198 7.0 10.0 0.00 0.00 0.00 100
20260504195138 57 208 8.0 14.0 0.00 0.00 0.00 100
20260504194739 58 210 8.0 11.0 0.00 0.00 0.00 100
20260504194339 58 212 8.0 13.0 0.00 0.00 0.00 100
20260504193937 58 209 8.0 12.0 0.00 0.00 0.00 100
20260504193537 58 211 8.0 13.0 0.00 0.00 0.00 100
20260504193137 58 191 9.0 12.0 0.00 0.00 0.00 100
20260504192737 58 215 8.0 12.0 0.00 0.00 0.00 100
20260504192337 58 204 8.0 12.0 0.00 0.00 0.00 100
20260504191935 58 205 9.0 13.0 0.00 0.00 0.00 100
20260504191535 58 206 8.0 10.0 0.00 0.00 0.00 100
20260504191135 58 188 8.0 11.0 0.00 0.00 0.00 100
20260504190734 58 208 8.0 13.0 0.00 0.00 0.00 100
20260504190334 58 207 10.0 13.0 0.00 0.00 0.00 100
20260504185932 58 182 9.0 16.0 0.00 0.00 0.00 100
20260504185533 58 189 8.0 12.0 0.00 0.00 0.00 100
20260504185133 58 197 6.0 9.0 0.00 0.00 0.00 100
20260504184733 58 194 8.0 12.0 0.00 0.00 0.00 100
20260504184333 58 195 6.0 12.0 0.00 0.00 0.00 100
20260504183931 58 190 6.0 8.0 0.00 0.00 0.00 100
20260504183531 58 185 8.0 10.0 0.00 0.00 0.00 100
20260504183131 58 211 7.0 11.0 0.00 0.00 0.00 100
20260504182729 58 193 8.0 11.0 0.00 0.00 0.00 100
20260504182328 58 184 7.0 10.0 0.00 0.00 0.00 100
20260504181927 59 207 6.0 10.0 0.00 0.00 0.00 100
20260504181527 59 197 8.0 14.0 0.00 0.00 0.00 100
20260504181127 59 176 10.0 13.0 0.00 0.00 0.00 100
20260504180727 59 197 8.0 11.0 0.00 0.00 0.00 100
20260504180327 60 197 8.0 11.0 0.00 0.00 0.00 100
20260504175925 60 197 9.0 11.0 0.00 0.00 0.00 100
20260504175525 60 185 10.0 14.0 0.00 0.00 0.00 100
20260504175125 60 202 11.0 15.0 0.00 0.00 0.00 100
20260504174724 60 214 9.0 16.0 0.00 0.00 0.00 100
20260504174324 60 197 10.0 13.0 0.00 0.00 0.00 100
20260504173922 61 191 11.0 17.0 0.00 0.00 0.00 100
20260504173522 61 212 10.0 17.0 0.00 0.00 0.00 100
20260504173122 61 205 8.0 12.0 0.00 0.00 0.00 100
20260504172713 61 210 10.0 14.0 0.00 0.00 0.00 100
20260504172313 61 219 10.0 15.0 0.00 0.00 0.00 100
20260504171911 61 211 11.0 15.0 0.00 0.00 0.00 100
20260504171511 61 208 11.0 16.0 0.00 0.00 0.00 100
20260504171111 62 222 10.0 18.0 0.00 0.00 0.00 100
20260504170711 62 211 8.0 12.0 0.00 0.00 0.00 100
20260504170311 62 219 10.0 13.0 0.00 0.00 0.00 100
20260504160305 63 212 11.0 16.0 0.00 0.00 0.00 100
20260504151059 65 222 11.0 17.0 0.00 0.00 0.00 100
20260504150659 65 240 9.0 14.0 0.00 0.00 0.00 100
20260504150259 65 230 10.0 15.0 0.00 0.00 0.00 100
20260504141043 65 229 8.0 14.0 0.00 0.00 0.00 100
20260504140642 65 228 9.0 15.0 0.00 0.00 0.00 100
20260504140243 65 232 10.0 15.0 0.00 0.00 0.00 100
20260504130635 65 229 8.0 12.0 0.00 0.00 0.00 100
20260504130235 66 227 9.0 14.0 0.00 0.00 0.00 100
20260504120220 64 234 9.0 14.0 0.00 0.00 0.00 100
20260504110612 65 231 8.0 11.0 0.00 0.00 0.00 100
20260504110212 65 218 11.0 15.0 0.00 0.00 0.00 100
20260504100604 64 229 10.0 15.0 0.00 0.00 0.00 100
20260504100204 64 222 8.0 14.0 0.00 0.00 0.00 100
20260504081745 57 206 13.0 19.0 0.00 0.00 0.00 100
20260504081345 57 201 14.0 22.0 0.00 0.00 0.00 100
20260504080945 57 217 12.0 19.0 0.00 0.00 0.00 100
20260504080545 57 204 14.0 20.0 0.00 0.00 0.00 100
20260504080146 56 206 14.0 20.0 0.00 0.00 0.00 100
20260504070130 53 202 13.0 20.0 0.00 0.00 0.00 100
20260504060125 51 187 15.0 22.0 0.00 0.00 0.00 100
20260504050518 50 201 15.0 24.0 0.00 0.00 0.00 100
20260504050118 50 195 14.0 22.0 0.00 0.00 0.00 100
20260504045716 49 204 15.0 20.0 0.00 0.00 0.00 100
20260504045316 49 204 13.0 19.0 0.00 0.00 0.00 100
20260504044916 50 197 12.0 17.0 0.00 0.00 0.00 100
20260504044516 49 204 10.0 16.0 0.00 0.00 0.00 100
20260504044116 49 185 13.0 20.0 0.00 0.00 0.00 100
20260504043714 49 194 12.0 17.0 0.00 0.00 0.00 100
20260504043314 49 182 12.0 18.0 0.00 0.00 0.00 100
20260504042907 49 206 12.0 19.0 0.00 0.00 0.00 100
20260504042108 49 202 11.0 15.0 0.00 0.00 0.00 100
20260504041705 50 198 14.0 21.0 0.00 0.00 0.00 100
20260504041304 50 194 14.0 20.0 0.00 0.00 0.00 100
20260504040904 50 201 13.0 18.0 0.00 0.00 0.00 100
20260504040104 50 190 16.0 23.0 0.00 0.00 0.00 100
20260504035705 50 199 17.0 24.0 0.00 0.00 0.00 100
20260504035302 50 197 16.0 24.0 0.00 0.00 0.00 100
20260504034902 50 186 17.0 22.0 0.00 0.00 0.00 100
20260504034502 50 195 17.0 22.0 0.00 0.00 0.00 100
20260504034102 50 204 17.0 22.0 0.00 0.00 0.00 100
20260504033700 49 196 17.0 23.0 0.00 0.00 0.00 100
20260504033259 49 199 18.0 21.0 0.00 0.00 0.00 100
20260504032859 49 172 16.0 25.0 0.00 0.00 0.00 100
20260504032459 49 195 16.0 24.0 0.00 0.00 0.00 100
20260504032059 49 193 16.0 22.0 0.00 0.00 0.00 100
20260504031658 49 199 14.0 21.0 0.00 0.00 0.00 100
20260504031257 49 204 16.0 23.0 0.00 0.00 0.00 100
20260504030857 49 187 14.0 18.0 0.00 0.00 0.00 100
20260504030458 49 205 14.0 20.0 0.00 0.00 0.00 100
20260504030058 48 197 14.0 16.0 0.00 0.00 0.00 100
20260504025656 48 198 14.0 20.0 0.00 0.00 0.00 100
20260504025255 48 194 13.0 15.0 0.00 0.00 0.00 100
20260504024855 49 193 14.0 18.0 0.00 0.00 0.00 100
20260504024455 48 196 14.0 19.0 0.00 0.00 0.00 100
20260504024055 48 196 15.0 20.0 0.00 0.00 0.00 100
20260504023653 48 207 16.0 19.0 0.00 0.00 0.00 100
20260504023253 49 202 15.0 19.0 0.00 0.00 0.00 100
20260504022852 49 204 14.0 20.0 0.00 0.00 0.00 100
20260504022452 48 200 14.0 20.0 0.00 0.00 0.00 100
20260504022053 48 203 14.0 19.0 0.00 0.00 0.00 100
20260504021651 49 199 14.0 24.0 0.00 0.00 0.00 100
20260504021251 49 195 16.0 23.0 0.00 0.00 0.00 100
20260504020851 48 204 16.0 23.0 0.00 0.00 0.00 100
20260504020451 48 201 14.0 19.0 0.00 0.00 0.00 100
20260504020053 48 188 13.0 19.0 0.00 0.00 0.00 100
20260504015640 49 192 15.0 22.0 0.00 0.00 0.00 100
20260504015240 49 192 14.0 21.0 0.00 0.00 0.00 100
20260504014840 49 192 15.0 20.0 0.00 0.00 0.00 100
20260504014438 49 174 13.0 19.0 0.00 0.00 0.00 100
20260504014038 49 196 15.0 21.0 0.00 0.00 0.00 100
20260504013636 49 208 14.0 18.0 0.00 0.00 0.00 100
20260504013236 49 195 13.0 17.0 0.00 0.00 0.00 100
20260504012836 50 198 14.0 22.0 0.00 0.00 0.00 100
20260504012436 50 204 15.0 20.0 0.00 0.00 0.00 100
20260504012036 50 192 15.0 21.0 0.00 0.00 0.00 100
20260504011634 50 197 15.0 20.0 0.00 0.00 0.00 100
20260504011234 50 198 13.0 17.0 0.00 0.00 0.00 100
20260504010834 50 200 14.0 20.0 0.00 0.00 0.00 100
20260504010434 50 184 13.0 18.0 0.00 0.00 0.00 100
20260504010034 50 203 14.0 21.0 0.00 0.00 0.00 100
20260504005632 50 198 13.0 20.0 0.00 0.00 0.00 100
20260504005231 50 193 13.0 18.0 0.00 0.00 0.00 100
20260504004831 50 200 12.0 16.0 0.00 0.00 0.00 100
20260504004431 50 186 13.0 17.0 0.00 0.00 0.00 100
20260504004031 50 173 12.0 16.0 0.00 0.00 0.00 100
20260504003629 50 196 12.0 19.0 0.00 0.00 0.00 100
20260504003229 50 198 11.0 17.0 0.00 0.00 0.00 100
20260504002829 50 196 12.0 15.0 0.00 0.00 0.00 100
20260504002429 50 205 13.0 18.0 0.00 0.00 0.00 100
20260504002029 50 197 13.0 17.0 0.00 0.00 0.00 100